Preview of NWS' New Version of Forecast
This preview is not operational and should not be used for support decisions.

Regional Weather Roundup (RWR)

Issued by National Weather Service (NWS)

                            
000
ASUS44 KJAN 160810
RWRMS 

MISSISSIPPI HOURLY WEATHER ROUNDUP
NATIONAL WEATHER SERVICE JACKSON MS
300 AM CDT TUE OCT 16 2018

NOTE: "FAIR: INDICATES FEW OR NO CLOUDS BELOW 12,000 FEET WITH NO
SIGNIFICANT WEATHER AND/OR OBSTRUCTIONS TO VISIBILITY.

MSZ001>002-007>008-010>013-018>021-025>028-034>036-160900-
NORTHWEST MISSISSIPPI
  
CITY           SKY/WX    TMP DP  RH WIND       PRES   REMARKS
BATESVILLE     CLOUDY    50  48  93 N5        30.24S                  
CLARKSDALE     CLOUDY    48  48 100 N13       30.25S                  
CLEVELAND      LGT RAIN  49  49 100 N12G18    30.23R                  
GREENWOOD      CLOUDY    56  51  84 N9        30.19F                  
GREENVILLE     LGT RAIN  50  46  86 N12       30.22R                  
OLIVE BRANCH   CLOUDY    45  45 100 CALM      30.25R                  
OXFORD         CLOUDY    48  46  93 NE5       30.24S                  
TUNICA           N/A     46  45  93 N9        30.27S                  
WINONA         CLOUDY    54  53  95 N10       30.19S                  
$$

MSZ003>006-009-014>017-022>024-029>033-037>039-160900-
NORTHEAST MISSISSIPPI
  
CITY           SKY/WX    TMP DP  RH WIND       PRES   REMARKS
ABERDEEN       CLOUDY    57  57 100 N12G17    30.20S                  
COLUMBUS AFB   CLOUDY    58  54  85 N10       30.17F                  
CORINTH        CLOUDY    52  48  87 N9        30.23F                  
GOLDN TRIANGLE CLOUDY    58  55  90 N12       30.18F                  
STARKVILLE     CLOUDY    55  54  94 N8        30.19S                  
TUPELO         CLOUDY    54  50  86 N10       30.20F                  
$$

MSZ040-058-160900-
CENTRAL MISSISSIPPI
  
CITY           SKY/WX    TMP DP  RH WIND       PRES   REMARKS
JACKSON INTL   CLOUDY    59  57  93 N9        30.15S                  
JACKSON HAWKNS CLOUDY    57  57 100 N6        30.15S FOG              
MADISON        CLOUDY    55  55 100 N5        30.14S FOG              
MERIDIAN KEY   CLOUDY    68  63  84 N13       30.12S                  
MERIDIAN NAS   NOT AVBL                                               
RAYMOND        CLOUDY    57  57 100 N7        30.15S FOG              
VICKSBURG VKS  CLOUDY    57  54  88 N10G17    30.16S                  
$$

MSZ059>079-160900-
SOUTH MISSISSIPPI
  
CITY           SKY/WX    TMP DP  RH WIND       PRES   REMARKS
COLUMBIA       CLOUDY    73  72  94 VRB5      30.12F                  
HATTIESBURG    LGT RAIN  73  72  96 E3        30.08F                  
LAUREL         CLOUDY    70  70 100 NE5       30.10S                  
MCCOMB         CLOUDY    71  66  84 N8        30.08F                  
NATCHEZ        CLOUDY    59  56  89 N12       30.13S                  
PINE BELT      LGT RAIN  72  71  97 N3        30.11R                  
$$

MSZ080>082-160900-
COASTAL MISSISSIPPI
  
CITY           SKY/WX    TMP DP  RH WIND       PRES   REMARKS
BILOXI         CLOUDY    78  76  96 E3        30.05S                  
PASCAGOULA     FOG       73  70  90 CALM      30.06S VSB 1/2          
GULFPORT       MOCLDY    79  75  87 N3        30.05S                  
$$

LAZ007>009-015>016-023>026-160900-
NORTHEAST LOUISIANA
  
CITY           SKY/WX    TMP DP  RH WIND       PRES   REMARKS
BASTROP          N/A     52  51  97 NE5       30.21S                  
TALLULAH/VBURG CLOUDY    56  52  86 N10       30.17R                  
VIDALIA        CLOUDY    59  55  85 N8        30.12S                  
$$